Find Starlink 38212

NORAD ID: 100267 Int'l Des: 2026-181 Owner: SPXS Country: US Constellation: starlink operational

現在のビュー

3D地球を読み込み中...

About Starlink 38212

Starlink 38212 (NORAD 100267) is a starlink constellation satellite launched Aug 8, 2026 by SPXS of US. with a mass of 575.00 kg.

次回通過

Passes for default location (London). Set your location on the main map for personalized predictions.

高度履歴

Loading altitude history...

軌道要素

1 A0267U 26181X 26251.62643797 .00238081 00000-0 15516-2 0 9995
2 A0267 97.2873 294.6732 0001052 96.2180 263.9205 15.75210865 6081
Epoch: Sep 8, 2026 • Age: 4 hours

現在のステータス

高度 372.9 km
遠地点 / 近地点 N/A
速度 7.68 km/s
衛星直下点 -82.67°S, 100.03°E
打ち上げ日 Aug 8, 2026
運用期間 31 days
タイプ internet

技術仕様

分類 Payload
質量 575.00 kg
乾燥質量 530.00 kg
総質量 575.00 kg
長さ 0.30 m
直径 4.10 m
スパン 29.00 m
形状 Box + pan
製造者 SPXS
バスタイプ Starlink V2MO
フェーズステータス In Orbit
所有者/国 SPXS/US

Most Searched